Station Historical Data
Daily Summary for October 6, 2017 Units:  Metric    English   Both
« Previous Day
Next Day »
Daily Weekly Monthly Yearly Custom
  High: Low: Average:
Temperature: 27.6 °C 15.1 °C 21.1 °C
Dew Point: 18.5 °C 13.5 °C 15.9 °C
Humidity: 91% 48% 74%
Wind Speed: 24.1km/h 1.6km/h 7.7km/h
Wind Gust: 24.1km/h - -
Wind- - East
Pressure: 1021.6 hPa 1016.5 hPa -
Precipitation: 0 mm    
Historical Graphs
 
 
Tabular Data for October 6, 2017
Time Temperature Dew Point Pressure Wind Wind Speed Wind Gust Humidity Rainfall Rate (Hourly) Conditions
00:00 17.5 °C 14.9 °C 1021.2 hPa East 4.8 km/h 4.8 km/h 85% 0 mm FEW
00:05 17.4 °C 14.9 °C 1021.2 hPa East 4.8 km/h 4.8 km/h 85% 0 mm FEW
00:15 17.4 °C 14.8 °C 1021.2 hPa NE 3.2 km/h 4.8 km/h 85% 0 mm FEW
00:20 17.4 °C 14.8 °C 1021.2 hPa North 3.2 km/h 3.2 km/h 85% 0 mm FEW
00:25 17.4 °C 14.8 °C 1021.2 hPa North 3.2 km/h 3.2 km/h 85% 0 mm FEW
00:30 17.3 °C 14.8 °C 1021.2 hPa North 3.2 km/h 3.2 km/h 85% 0 mm FEW
00:40 17.3 °C 14.8 °C 1020.9 hPa North 3.2 km/h 3.2 km/h 85% 0 mm FEW
00:45 17.3 °C 14.8 °C 1020.9 hPa North 3.2 km/h 3.2 km/h 85% 0 mm FEW
00:50 17.3 °C 14.7 °C 1020.9 hPa North 3.2 km/h 3.2 km/h 85% 0 mm FEW
01:00 17.1 °C 14.8 °C 1020.9 hPa North 3.2 km/h 3.2 km/h 86% 0 mm FEW
01:05 17.1 °C 14.7 °C 1020.9 hPa North 3.2 km/h 3.2 km/h 86% 0 mm FEW
01:10 17.1 °C 14.7 °C 1020.9 hPa North 3.2 km/h 3.2 km/h 86% 0 mm FEW
01:15 17 °C 14.7 °C 1020.9 hPa North 3.2 km/h 3.2 km/h 86% 0 mm CLR
01:25 16.9 °C 14.6 °C 1020.9 hPa North 3.2 km/h 3.2 km/h 86% 0 mm CLR
01:45 16.7 °C 14.5 °C 1020.9 hPa North 3.2 km/h 3.2 km/h 87% 0 mm CLR
01:50 16.6 °C 14.4 °C 1020.9 hPa North 3.2 km/h 3.2 km/h 87% 0 mm CLR
01:55 16.7 °C 14.5 °C 1020.9 hPa North 3.2 km/h 3.2 km/h 87% 0 mm CLR
02:00 16.7 °C 14.5 °C 1020.9 hPa North 3.2 km/h 3.2 km/h 87% 0 mm CLR
02:05 16.6 °C 14.4 °C 1020.9 hPa North 3.2 km/h 3.2 km/h 87% 0 mm CLR
02:20 16.4 °C 14.4 °C 1020.9 hPa North 3.2 km/h 3.2 km/h 88% 0 mm CLR
02:25 16.4 °C 14.4 °C 1020.9 hPa North 3.2 km/h 3.2 km/h 88% 0 mm CLR
02:30 16.4 °C 14.4 °C 1020.9 hPa North 3.2 km/h 3.2 km/h 88% 0 mm CLR
02:35 16.3 °C 14.3 °C 1020.9 hPa North 3.2 km/h 3.2 km/h 88% 0 mm CLR
02:40 16.3 °C 14.3 °C 1020.9 hPa North 3.2 km/h 3.2 km/h 88% 0 mm CLR
02:45 16.3 °C 14.3 °C 1020.9 hPa North 3.2 km/h 3.2 km/h 88% 0 mm CLR
02:50 16.3 °C 14.3 °C 1020.5 hPa North 3.2 km/h 3.2 km/h 88% 0 mm CLR
02:55 16.2 °C 14.2 °C 1020.9 hPa North 3.2 km/h 3.2 km/h 88% 0 mm CLR
03:00 16.2 °C 14.2 °C 1020.9 hPa North 3.2 km/h 3.2 km/h 88% 0 mm CLR
03:05 16.2 °C 14.2 °C 1020.9 hPa North 3.2 km/h 3.2 km/h 88% 0 mm CLR
03:10 16.2 °C 14.2 °C 1020.9 hPa North 3.2 km/h 3.2 km/h 88% 0 mm CLR
03:15 16.1 °C 14.1 °C 1020.9 hPa ENE 3.2 km/h 3.2 km/h 88% 0 mm CLR
03:20 16.1 °C 14.1 °C 1020.9 hPa East 3.2 km/h 3.2 km/h 88% 0 mm CLR
03:25 16.1 °C 14.1 °C 1020.9 hPa East 3.2 km/h 3.2 km/h 88% 0 mm CLR
03:30 16 °C 14 °C 1020.9 hPa East 3.2 km/h 3.2 km/h 88% 0 mm CLR
03:35 15.9 °C 13.9 °C 1020.9 hPa East 3.2 km/h 3.2 km/h 88% 0 mm CLR
03:40 15.9 °C 13.9 °C 1020.9 hPa East 3.2 km/h 3.2 km/h 88% 0 mm CLR
03:50 15.8 °C 13.8 °C 1020.5 hPa East 3.2 km/h 3.2 km/h 88% 0 mm CLR
03:55 15.8 °C 13.9 °C 1020.5 hPa East 3.2 km/h 3.2 km/h 89% 0 mm CLR
04:00 15.7 °C 13.9 °C 1020.5 hPa East 3.2 km/h 3.2 km/h 89% 0 mm CLR
04:05 15.7 °C 13.8 °C 1020.5 hPa East 3.2 km/h 3.2 km/h 89% 0 mm CLR
04:10 15.7 °C 13.8 °C 1020.5 hPa East 3.2 km/h 3.2 km/h 89% 0 mm CLR
04:15 15.7 °C 13.8 °C 1020.5 hPa East 1.6 km/h 3.2 km/h 89% 0 mm CLR
04:25 15.6 °C 13.8 °C 1020.5 hPa East 1.6 km/h 1.6 km/h 89% 0 mm CLR
04:30 15.6 °C 14 °C 1020.5 hPa East 1.6 km/h 1.6 km/h 90% 0 mm CLR
04:35 15.7 °C 13.8 °C 1020.5 hPa East 1.6 km/h 1.6 km/h 89% 0 mm CLR
04:40 15.6 °C 13.8 °C 1020.5 hPa East 1.6 km/h 1.6 km/h 89% 0 mm CLR
04:45 15.6 °C 13.8 °C 1020.5 hPa East 1.6 km/h 1.6 km/h 89% 0 mm CLR
04:50 15.6 °C 13.7 °C 1020.5 hPa East 1.6 km/h 1.6 km/h 89% 0 mm CLR
04:55 15.5 °C 13.7 °C 1020.5 hPa East 1.6 km/h 1.6 km/h 89% 0 mm CLR
05:00 15.5 °C 13.7 °C 1020.5 hPa East 1.6 km/h 1.6 km/h 89% 0 mm CLR
05:10 15.6 °C 13.9 °C 1020.5 hPa East 1.6 km/h 1.6 km/h 90% 0 mm CLR
05:15 15.5 °C 13.7 °C 1020.5 hPa East 1.6 km/h 1.6 km/h 89% 0 mm CLR
05:20 15.4 °C 13.7 °C 1020.5 hPa East 1.6 km/h 1.6 km/h 89% 0 mm CLR
05:25 15.4 °C 13.8 °C 1020.5 hPa East 1.6 km/h 1.6 km/h 90% 0 mm CLR
05:30 15.4 °C 13.8 °C 1020.5 hPa East 1.6 km/h 1.6 km/h 90% 0 mm CLR
05:35 15.4 °C 13.8 °C 1020.5 hPa East 1.6 km/h 1.6 km/h 90% 0 mm CLR
05:40 15.4 °C 13.8 °C 1020.5 hPa East 1.6 km/h 1.6 km/h 90% 0 mm CLR
05:45 15.4 °C 13.8 °C 1020.9 hPa East 1.6 km/h 1.6 km/h 90% 0 mm CLR
05:50 15.4 °C 13.7 °C 1020.9 hPa East 1.6 km/h 1.6 km/h 90% 0 mm CLR
05:55 15.3 °C 13.7 °C 1020.9 hPa East 1.6 km/h 1.6 km/h 90% 0 mm CLR
06:00 15.3 °C 13.7 °C 1020.9 hPa East 1.6 km/h 1.6 km/h 90% 0 mm CLR
06:05 15.3 °C 13.7 °C 1020.9 hPa East 1.6 km/h 1.6 km/h 90% 0 mm CLR
06:10 15.4 °C 13.8 °C 1020.9 hPa East 1.6 km/h 1.6 km/h 90% 0 mm CLR
06:15 15.4 °C 13.8 °C 1020.9 hPa ENE 1.6 km/h 1.6 km/h 90% 0 mm CLR
06:20 15.4 °C 13.8 °C 1020.9 hPa ENE 1.6 km/h 1.6 km/h 90% 0 mm CLR
06:25 15.4 °C 13.8 °C 1020.9 hPa ENE 1.6 km/h 1.6 km/h 90% 0 mm CLR
06:30 15.4 °C 13.8 °C 1020.9 hPa ENE 1.6 km/h 1.6 km/h 90% 0 mm CLR
06:35 15.4 °C 13.8 °C 1020.9 hPa ENE 1.6 km/h 1.6 km/h 90% 0 mm CLR
06:40 15.4 °C 13.8 °C 1020.9 hPa ENE 1.6 km/h 1.6 km/h 90% 0 mm CLR
06:50 15.4 °C 13.8 °C 1021.2 hPa ENE 1.6 km/h 1.6 km/h 90% 0 mm CLR
06:55 15.4 °C 13.8 °C 1021.2 hPa ENE 1.6 km/h 1.6 km/h 90% 0 mm CLR
07:00 15.4 °C 13.8 °C 1021.2 hPa ENE 1.6 km/h 1.6 km/h 90% 0 mm CLR
07:05 15.4 °C 13.8 °C 1021.2 hPa ENE 1.6 km/h 1.6 km/h 90% 0 mm CLR
07:15 15.3 °C 13.7 °C 1021.2 hPa ENE 1.6 km/h 1.6 km/h 90% 0 mm CLR
07:20 15.3 °C 13.7 °C 1021.2 hPa ENE 1.6 km/h 1.6 km/h 90% 0 mm CLR
07:25 15.3 °C 13.7 °C 1021.6 hPa ENE 1.6 km/h 1.6 km/h 90% 0 mm CLR
07:30 15.3 °C 13.7 °C 1021.6 hPa ENE 1.6 km/h 1.6 km/h 90% 0 mm CLR
07:35 15.3 °C 13.6 °C 1021.2 hPa ENE 1.6 km/h 1.6 km/h 90% 0 mm CLR
07:40 15.2 °C 13.6 °C 1021.2 hPa ENE 1.6 km/h 1.6 km/h 90% 0 mm CLR
07:45 15.2 °C 13.5 °C 1021.2 hPa ENE 1.6 km/h 1.6 km/h 90% 0 mm CLR
07:50 15.1 °C 13.5 °C 1021.2 hPa ENE 1.6 km/h 1.6 km/h 90% 0 mm CLR
07:55 15.1 °C 13.5 °C 1021.6 hPa ENE 1.6 km/h 1.6 km/h 90% 0 mm CLR
08:05 15.1 °C 13.7 °C 1021.6 hPa ENE 1.6 km/h 1.6 km/h 91% 0 mm CLR
08:10 15.2 °C 13.7 °C 1021.6 hPa ENE 1.6 km/h 1.6 km/h 91% 0 mm CLR
08:15 15.2 °C 13.7 °C 1021.6 hPa ENE 1.6 km/h 1.6 km/h 91% 0 mm BKN
08:25 15.4 °C 13.9 °C 1021.6 hPa ENE 1.6 km/h 1.6 km/h 91% 0 mm BKN
08:30 15.5 °C 14.1 °C 1021.6 hPa ENE 1.6 km/h 1.6 km/h 91% 0 mm BKN
08:35 15.7 °C 14.2 °C 1021.6 hPa ENE 1.6 km/h 1.6 km/h 91% 0 mm BKN
08:40 15.8 °C 14.3 °C 1021.6 hPa ENE 1.6 km/h 1.6 km/h 91% 0 mm BKN
08:45 16 °C 14.5 °C 1021.6 hPa ENE 1.6 km/h 1.6 km/h 91% 0 mm BKN
08:50 16.2 °C 14.7 °C 1021.6 hPa ENE 1.6 km/h 1.6 km/h 91% 0 mm BKN
08:55 16.3 °C 14.7 °C 1021.6 hPa ENE 1.6 km/h 1.6 km/h 90% 0 mm BKN
09:00 16.7 °C 14.8 °C 1021.6 hPa ENE 1.6 km/h 1.6 km/h 89% 0 mm BKN
09:10 17.2 °C 15.2 °C 1021.6 hPa ENE 1.6 km/h 1.6 km/h 88% 0 mm BKN
09:15 17.4 °C 15.3 °C 1021.6 hPa ENE 4.8 km/h 4.8 km/h 87% 0 mm BKN
09:25 18.1 °C 15.7 °C 1021.6 hPa ENE 4.8 km/h 4.8 km/h 86% 0 mm BKN
09:30 18.3 °C 15.7 °C 1021.6 hPa ENE 4.8 km/h 4.8 km/h 85% 0 mm BKN
09:40 18.7 °C 15.9 °C 1021.6 hPa ENE 4.8 km/h 4.8 km/h 84% 0 mm BKN
09:45 18.8 °C 16.1 °C 1021.6 hPa ENE 4.8 km/h 4.8 km/h 84% 0 mm BKN
09:50 19.1 °C 16.1 °C 1021.6 hPa ENE 4.8 km/h 4.8 km/h 83% 0 mm BKN
09:55 19.2 °C 16.3 °C 1021.6 hPa ENE 4.8 km/h 4.8 km/h 83% 0 mm BKN
10:05 19.6 °C 16.6 °C 1021.6 hPa ENE 4.8 km/h 4.8 km/h 83% 0 mm BKN
10:10 19.8 °C 16.8 °C 1021.6 hPa ENE 4.8 km/h 4.8 km/h 83% 0 mm BKN
10:15 19.9 °C 16.9 °C 1021.6 hPa ENE 4.8 km/h 4.8 km/h 83% 0 mm BKN
10:20 20.1 °C 17.1 °C 1021.6 hPa East 4.8 km/h 4.8 km/h 83% 0 mm BKN
10:25 20.2 °C 17.4 °C 1021.6 hPa East 4.8 km/h 4.8 km/h 84% 0 mm BKN
10:30 20.4 °C 17.4 °C 1021.6 hPa East 4.8 km/h 4.8 km/h 83% 0 mm BKN
10:35 20.7 °C 17.7 °C 1021.6 hPa East 4.8 km/h 4.8 km/h 83% 0 mm BKN
10:40 20.9 °C 17.5 °C 1021.6 hPa East 4.8 km/h 4.8 km/h 81% 0 mm BKN
10:45 21.1 °C 17.4 °C 1021.6 hPa East 4.8 km/h 4.8 km/h 80% 0 mm BKN
10:50 21.3 °C 17.9 °C 1021.6 hPa East 4.8 km/h 4.8 km/h 81% 0 mm BKN
10:55 21.6 °C 18.1 °C 1021.6 hPa East 4.8 km/h 4.8 km/h 80% 0 mm BKN
11:00 22.1 °C 17.6 °C 1021.6 hPa East 4.8 km/h 4.8 km/h 76% 0 mm BKN
11:05 22.4 °C 17.8 °C 1021.6 hPa East 4.8 km/h 4.8 km/h 75% 0 mm BKN
11:10 22.9 °C 18.1 °C 1021.2 hPa East 4.8 km/h 4.8 km/h 74% 0 mm BKN
11:15 23.3 °C 17.9 °C 1021.2 hPa East 9.7 km/h 9.7 km/h 72% 0 mm SCT
11:20 23.7 °C 17.9 °C 1021.2 hPa East 9.7 km/h 9.7 km/h 70% 0 mm SCT
11:30 25.1 °C 18.5 °C 1021.2 hPa East 9.7 km/h 9.7 km/h 67% 0 mm SCT
11:35 25.3 °C 18 °C 1021.2 hPa East 9.7 km/h 9.7 km/h 64% 0 mm SCT
11:40 25.5 °C 17.9 °C 1021.2 hPa East 9.7 km/h 9.7 km/h 63% 0 mm SCT
11:45 25.9 °C 18.3 °C 1020.9 hPa East 9.7 km/h 9.7 km/h 63% 0 mm SCT
11:50 26 °C 17.9 °C 1020.9 hPa East 9.7 km/h 9.7 km/h 61% 0 mm SCT
11:55 25.9 °C 17.6 °C 1020.9 hPa East 9.7 km/h 9.7 km/h 60% 0 mm SCT
12:00 26 °C 17.6 °C 1020.9 hPa East 9.7 km/h 9.7 km/h 60% 0 mm SCT
12:05 25.7 °C 17.6 °C 1020.9 hPa East 9.7 km/h 9.7 km/h 61% 0 mm SCT
12:10 25.8 °C 17.4 °C 1020.9 hPa East 9.7 km/h 9.7 km/h 60% 0 mm SCT
12:15 25.6 °C 17.2 °C 1020.9 hPa ESE 11.3 km/h 11.3 km/h 60% 0 mm SCT
12:20 25.2 °C 17.1 °C 1020.5 hPa ESE 11.3 km/h 11.3 km/h 61% 0 mm SCT
12:30 25.3 °C 16.4 °C 1020.5 hPa ESE 11.3 km/h 11.3 km/h 58% 0 mm SCT
12:35 25.1 °C 16.6 °C 1020.9 hPa ESE 11.3 km/h 11.3 km/h 59% 0 mm SCT
12:40 25.4 °C 16.8 °C 1020.5 hPa ESE 11.3 km/h 11.3 km/h 59% 0 mm SCT
12:45 25.3 °C 16.4 °C 1020.5 hPa ESE 11.3 km/h 11.3 km/h 58% 0 mm SCT
12:50 25.3 °C 16.5 °C 1020.5 hPa ESE 11.3 km/h 11.3 km/h 58% 0 mm SCT
12:55 25.5 °C 16.3 °C 1020.2 hPa ESE 11.3 km/h 11.3 km/h 57% 0 mm SCT
13:00 25.6 °C 16.2 °C 1020.2 hPa ESE 11.3 km/h 11.3 km/h 56% 0 mm SCT
13:05 25.7 °C 16.5 °C 1020.2 hPa ESE 11.3 km/h 11.3 km/h 57% 0 mm SCT
13:10 25.8 °C 16.1 °C 1020.2 hPa ESE 11.3 km/h 11.3 km/h 55% 0 mm SCT
13:15 25.7 °C 16.5 °C 1019.9 hPa ESE 12.9 km/h 12.9 km/h 57% 0 mm BKN
13:20 25.6 °C 16.4 °C 1019.9 hPa ESE 12.9 km/h 12.9 km/h 57% 0 mm BKN
13:25 25.6 °C 16.4 °C 1019.9 hPa ESE 12.9 km/h 12.9 km/h 57% 0 mm BKN
13:30 25.6 °C 16.4 °C 1019.5 hPa ESE 12.9 km/h 12.9 km/h 57% 0 mm BKN
13:35 25.5 °C 16.3 °C 1019.5 hPa ESE 12.9 km/h 12.9 km/h 57% 0 mm BKN
13:40 25.7 °C 16.8 °C 1019.5 hPa ESE 12.9 km/h 12.9 km/h 58% 0 mm BKN
13:45 25.7 °C 15.7 °C 1019.2 hPa ESE 12.9 km/h 12.9 km/h 54% 0 mm BKN
13:50 26.1 °C 16.3 °C 1019.2 hPa ESE 12.9 km/h 12.9 km/h 55% 0 mm BKN
14:00 26.9 °C 16.2 °C 1019.2 hPa ESE 12.9 km/h 12.9 km/h 52% 0 mm BKN
14:05 27 °C 16.3 °C 1018.8 hPa ESE 12.9 km/h 12.9 km/h 52% 0 mm BKN
14:10 27.1 °C 15.7 °C 1018.8 hPa ESE 12.9 km/h 12.9 km/h 50% 0 mm BKN
14:15 27.2 °C 16.2 °C 1018.8 hPa East 14.5 km/h 14.5 km/h 51% 0 mm SCT
14:25 27.6 °C 16.5 °C 1018.5 hPa East 14.5 km/h 14.5 km/h 51% 0 mm SCT
14:30 27.3 °C 16 °C 1018.5 hPa East 14.5 km/h 14.5 km/h 50% 0 mm SCT
14:35 27.2 °C 15.2 °C 1018.5 hPa East 14.5 km/h 14.5 km/h 48% 0 mm SCT
14:40 26.8 °C 15.8 °C 1018.2 hPa East 14.5 km/h 14.5 km/h 51% 0 mm SCT
14:45 26.8 °C 15.8 °C 1018.2 hPa East 14.5 km/h 14.5 km/h 51% 0 mm SCT
14:50 26.8 °C 15.8 °C 1018.2 hPa East 14.5 km/h 14.5 km/h 51% 0 mm SCT
14:55 26.9 °C 15.9 °C 1018.2 hPa East 14.5 km/h 14.5 km/h 51% 0 mm SCT
15:00 27.1 °C 16.4 °C 1017.8 hPa East 14.5 km/h 14.5 km/h 52% 0 mm SCT
15:05 27.2 °C 16.5 °C 1017.8 hPa East 14.5 km/h 14.5 km/h 52% 0 mm SCT
15:10 27.1 °C 16.4 °C 1017.8 hPa East 14.5 km/h 14.5 km/h 52% 0 mm SCT
15:15 27.1 °C 16.3 °C 1017.8 hPa ESE 24.1 km/h 24.1 km/h 52% 0 mm FEW
15:20 27 °C 16 °C 1017.8 hPa SE 24.1 km/h 24.1 km/h 51% 0 mm FEW
15:25 26.9 °C 15.9 °C 1017.8 hPa SE 24.1 km/h 24.1 km/h 51% 0 mm FEW
15:30 26.7 °C 15.7 °C 1017.8 hPa SE 24.1 km/h 24.1 km/h 51% 0 mm FEW
15:40 26.8 °C 16.1 °C 1017.5 hPa SE 24.1 km/h 24.1 km/h 52% 0 mm FEW
15:50 26.8 °C 15.6 °C 1017.5 hPa SE 24.1 km/h 24.1 km/h 50% 0 mm FEW
15:55 26.8 °C 15.5 °C 1017.2 hPa SE 24.1 km/h 24.1 km/h 50% 0 mm FEW
16:00 26.8 °C 15.6 °C 1017.2 hPa SE 24.1 km/h 24.1 km/h 50% 0 mm FEW
16:05 26.8 °C 15.6 °C 1017.2 hPa SE 24.1 km/h 24.1 km/h 50% 0 mm FEW
16:10 27.1 °C 15.8 °C 1017.2 hPa SE 24.1 km/h 24.1 km/h 50% 0 mm FEW
16:15 27.3 °C 15.7 °C 1017.2 hPa ESE 14.5 km/h 24.1 km/h 49% 0 mm FEW
16:20 27.4 °C 15.4 °C 1017.2 hPa East 14.5 km/h 14.5 km/h 48% 0 mm FEW
16:25 27.3 °C 15.7 °C 1017.2 hPa East 14.5 km/h 14.5 km/h 49% 0 mm FEW
16:30 27.2 °C 15.8 °C 1017.2 hPa East 14.5 km/h 14.5 km/h 50% 0 mm FEW
16:35 27 °C 15.4 °C 1017.2 hPa East 14.5 km/h 14.5 km/h 49% 0 mm FEW
16:40 26.9 °C 15.9 °C 1017.2 hPa East 14.5 km/h 14.5 km/h 51% 0 mm FEW
16:45 26.6 °C 15.3 °C 1017.2 hPa East 14.5 km/h 14.5 km/h 50% 0 mm FEW
16:50 26.4 °C 15.7 °C 1017.2 hPa East 14.5 km/h 14.5 km/h 52% 0 mm FEW
16:55 26.3 °C 15.3 °C 1017.2 hPa East 14.5 km/h 14.5 km/h 51% 0 mm FEW
17:00 26.2 °C 15.9 °C 1016.8 hPa East 14.5 km/h 14.5 km/h 53% 0 mm FEW
17:05 26.3 °C 16.2 °C 1016.8 hPa East 14.5 km/h 14.5 km/h 54% 0 mm FEW
17:10 26.3 °C 16.3 °C 1016.8 hPa East 14.5 km/h 14.5 km/h 54% 0 mm FEW
17:15 26.4 °C 16.1 °C 1016.8 hPa ESE 12.9 km/h 14.5 km/h 53% 0 mm SCT
17:20 26.4 °C 16.1 °C 1016.8 hPa ESE 12.9 km/h 12.9 km/h 53% 0 mm SCT
17:25 26.4 °C 16.1 °C 1016.8 hPa ESE 12.9 km/h 12.9 km/h 53% 0 mm SCT
17:30 26.4 °C 16.3 °C 1016.8 hPa ESE 12.9 km/h 12.9 km/h 54% 0 mm SCT
17:40 26.2 °C 16.4 °C 1016.8 hPa ESE 12.9 km/h 12.9 km/h 55% 0 mm SCT
17:45 26.2 °C 16.7 °C 1016.8 hPa ESE 12.9 km/h 12.9 km/h 56% 0 mm SCT
17:50 26.1 °C 16.6 °C 1016.8 hPa ESE 12.9 km/h 12.9 km/h 56% 0 mm SCT
17:55 26 °C 16.8 °C 1016.8 hPa ESE 12.9 km/h 12.9 km/h 57% 0 mm SCT
18:00 25.8 °C 16.7 °C 1016.8 hPa ESE 12.9 km/h 12.9 km/h 57% 0 mm SCT
18:05 25.8 °C 16.9 °C 1016.8 hPa ESE 12.9 km/h 12.9 km/h 58% 0 mm SCT
18:10 25.7 °C 17.1 °C 1016.8 hPa ESE 12.9 km/h 12.9 km/h 59% 0 mm SCT
18:15 25.7 °C 17.3 °C 1016.8 hPa ESE 16.1 km/h 16.1 km/h 60% 0 mm BKN
18:20 25.6 °C 17.3 °C 1016.8 hPa ESE 16.1 km/h 16.1 km/h 60% 0 mm BKN
18:25 25.6 °C 17.3 °C 1016.5 hPa ESE 16.1 km/h 16.1 km/h 60% 0 mm BKN
18:30 25.6 °C 17.2 °C 1016.8 hPa ESE 16.1 km/h 16.1 km/h 60% 0 mm BKN
18:35 25.5 °C 17.4 °C 1016.8 hPa ESE 16.1 km/h 16.1 km/h 61% 0 mm BKN
18:40 25.4 °C 17.3 °C 1016.8 hPa ESE 16.1 km/h 16.1 km/h 61% 0 mm BKN
18:45 25.3 °C 17.3 °C 1016.8 hPa ESE 16.1 km/h 16.1 km/h 61% 0 mm BKN
18:50 25.2 °C 17.2 °C 1016.8 hPa ESE 16.1 km/h 16.1 km/h 61% 0 mm BKN
18:55 25.1 °C 17.3 °C 1016.8 hPa ESE 16.1 km/h 16.1 km/h 62% 0 mm BKN
19:00 25 °C 17.2 °C 1016.8 hPa ESE 16.1 km/h 16.1 km/h 62% 0 mm BKN
19:05 24.8 °C 17.3 °C 1016.8 hPa ESE 16.1 km/h 16.1 km/h 63% 0 mm BKN
19:10 24.7 °C 17.4 °C 1016.8 hPa ESE 16.1 km/h 16.1 km/h 64% 0 mm BKN
19:15 24.6 °C 17.3 °C 1016.8 hPa ESE 14.5 km/h 16.1 km/h 64% 0 mm BKN
19:20 24.4 °C 17.2 °C 1016.8 hPa ESE 14.5 km/h 14.5 km/h 64% 0 mm BKN
19:25 24.2 °C 17.5 °C 1016.8 hPa ESE 14.5 km/h 14.5 km/h 66% 0 mm BKN
19:30 24 °C 17.5 °C 1016.8 hPa ESE 14.5 km/h 14.5 km/h 67% 0 mm BKN
19:35 23.8 °C 17.3 °C 1016.8 hPa ESE 14.5 km/h 14.5 km/h 67% 0 mm BKN
19:40 23.5 °C 17.2 °C 1016.8 hPa ESE 14.5 km/h 14.5 km/h 68% 0 mm BKN
19:45 23.3 °C 17.3 °C 1016.8 hPa ESE 14.5 km/h 14.5 km/h 69% 0 mm BKN
19:50 23.1 °C 17.3 °C 1016.8 hPa ESE 14.5 km/h 14.5 km/h 70% 0 mm BKN
19:55 22.9 °C 17.3 °C 1016.8 hPa ESE 14.5 km/h 14.5 km/h 71% 0 mm BKN
20:00 22.7 °C 17.2 °C 1016.8 hPa ESE 14.5 km/h 14.5 km/h 71% 0 mm BKN
20:05 22.6 °C 17.3 °C 1016.8 hPa ESE 14.5 km/h 14.5 km/h 72% 0 mm BKN
20:15 22.3 °C 17.2 °C 1016.8 hPa East 4.8 km/h 14.5 km/h 73% 0 mm SCT
20:20 22.2 °C 17.2 °C 1016.8 hPa East 4.8 km/h 4.8 km/h 73% 0 mm SCT
20:25 22.2 °C 17.3 °C 1017.2 hPa East 4.8 km/h 4.8 km/h 74% 0 mm SCT
20:30 22.1 °C 17.2 °C 1017.2 hPa East 4.8 km/h 4.8 km/h 74% 0 mm SCT
20:35 22 °C 17.4 °C 1017.2 hPa East 4.8 km/h 4.8 km/h 75% 0 mm SCT
20:40 21.9 °C 17.3 °C 1017.2 hPa East 4.8 km/h 4.8 km/h 75% 0 mm SCT
20:45 21.9 °C 17.3 °C 1017.2 hPa East 4.8 km/h 4.8 km/h 75% 0 mm SCT
20:50 21.9 °C 17.5 °C 1017.2 hPa East 4.8 km/h 4.8 km/h 76% 0 mm SCT
20:55 21.9 °C 17.5 °C 1017.2 hPa East 4.8 km/h 4.8 km/h 76% 0 mm SCT
21:00 21.9 °C 17.5 °C 1017.2 hPa East 4.8 km/h 4.8 km/h 76% 0 mm SCT
21:05 21.9 °C 17.5 °C 1017.2 hPa East 4.8 km/h 4.8 km/h 76% 0 mm SCT
21:10 21.9 °C 17.5 °C 1017.2 hPa East 4.8 km/h 4.8 km/h 76% 0 mm SCT
21:15 21.9 °C 17.4 °C 1017.2 hPa East 4.8 km/h 4.8 km/h 76% 0 mm BKN
21:20 21.9 °C 17.4 °C 1017.5 hPa East 4.8 km/h 4.8 km/h 76% 0 mm BKN
21:25 21.9 °C 17.4 °C 1017.2 hPa East 4.8 km/h 4.8 km/h 76% 0 mm BKN
21:30 21.9 °C 17.7 °C 1017.2 hPa East 4.8 km/h 4.8 km/h 77% 0 mm BKN
21:35 21.8 °C 17.6 °C 1017.2 hPa East 4.8 km/h 4.8 km/h 77% 0 mm BKN
21:40 21.8 °C 17.6 °C 1017.2 hPa East 4.8 km/h 4.8 km/h 77% 0 mm BKN
21:45 21.8 °C 17.6 °C 1017.5 hPa East 4.8 km/h 4.8 km/h 77% 0 mm BKN
21:50 21.8 °C 17.3 °C 1017.2 hPa East 4.8 km/h 4.8 km/h 76% 0 mm BKN
21:55 21.8 °C 17.4 °C 1017.2 hPa East 4.8 km/h 4.8 km/h 76% 0 mm BKN
22:00 21.8 °C 17.3 °C 1017.2 hPa East 4.8 km/h 4.8 km/h 76% 0 mm BKN
22:05 21.8 °C 17.6 °C 1017.2 hPa East 4.8 km/h 4.8 km/h 77% 0 mm BKN
22:10 21.7 °C 17.5 °C 1017.2 hPa East 4.8 km/h 4.8 km/h 77% 0 mm BKN
22:15 21.6 °C 17.4 °C 1017.2 hPa ENE 4.8 km/h 4.8 km/h 77% 0 mm BKN
22:20 21.6 °C 17.3 °C 1017.2 hPa ENE 4.8 km/h 4.8 km/h 77% 0 mm BKN
22:25 21.4 °C 17.4 °C 1017.5 hPa ENE 4.8 km/h 4.8 km/h 78% 0 mm BKN
22:30 21.4 °C 17.4 °C 1017.2 hPa ENE 4.8 km/h 4.8 km/h 78% 0 mm BKN
22:35 21.4 °C 17.6 °C 1017.2 hPa ENE 4.8 km/h 4.8 km/h 79% 0 mm BKN
22:45 21.3 °C 17.6 °C 1017.2 hPa ENE 4.8 km/h 4.8 km/h 79% 0 mm BKN
22:50 21.3 °C 17.5 °C 1017.2 hPa ENE 4.8 km/h 4.8 km/h 79% 0 mm BKN
23:00 21.3 °C 17.6 °C 1017.2 hPa ENE 4.8 km/h 4.8 km/h 79% 0 mm BKN
23:05 21.4 °C 17.7 °C 1016.8 hPa ENE 4.8 km/h 4.8 km/h 79% 0 mm BKN
23:10 21.5 °C 17.7 °C 1016.8 hPa ENE 4.8 km/h 4.8 km/h 79% 0 mm BKN
23:15 21.6 °C 17.8 °C 1017.2 hPa East 9.7 km/h 9.7 km/h 79% 0 mm OVC
23:20 21.6 °C 17.8 °C 1017.2 hPa East 9.7 km/h 9.7 km/h 79% 0 mm OVC
23:25 21.6 °C 17.8 °C 1017.2 hPa East 9.7 km/h 9.7 km/h 79% 0 mm OVC
23:30 21.7 °C 17.9 °C 1017.2 hPa East 9.7 km/h 9.7 km/h 79% 0 mm OVC
23:35 21.7 °C 17.9 °C 1017.2 hPa East 9.7 km/h 9.7 km/h 79% 0 mm OVC
23:40 21.7 °C 17.9 °C 1017.2 hPa East 9.7 km/h 9.7 km/h 79% 0 mm OVC
23:45 21.7 °C 17.9 °C 1016.8 hPa East 9.7 km/h 9.7 km/h 79% 0 mm OVC
23:50 21.7 °C 17.9 °C 1016.8 hPa East 9.7 km/h 9.7 km/h 79% 0 mm OVC
23:55 21.7 °C 17.9 °C 1016.8 hPa East 9.7 km/h 9.7 km/h 79% 0 mm OVC
Piedmont Bend
Compliments of Weather Underground - 4 mb